Overview Statistics Trail Chart Weather Telemetry Raw packets
 

This is the latest recevied weather packets stored in our database for station/object SA7AHC. If no packets are shown the sender has not sent any weather packets the latest 10 day(s).

<< 13 14 15 16 17 18 19 >>
Time Temp. Humidity Pressure Rain* Wind** Luminosity Snow
1788420243 11.67° C 99% 1012.6 hPa 0 mm - 163 W/m² -
1788419642 11.11° C 99% 1012.6 hPa 0 mm - 202 W/m² -
1788419041 11.11° C 99% 1012.5 hPa 0 mm - 100 W/m² -
1788418441 11.11° C 99% 1012.6 hPa 0 mm - 125 W/m² -
1788417842 10.56° C 99% 1012.6 hPa 0 mm - 156 W/m² -
1788417241 10.56° C 99% 1012.8 hPa 0 mm - 144 W/m² -
1788416644 10° C 99% 1012.8 hPa 0 mm - 72 W/m² -
1788416042 10° C 99% 1012.8 hPa 0 mm - 46 W/m² -
1788415438 9.44° C 99% 1012.8 hPa 0 mm - 35 W/m² -
1788414828 9.44° C 99% 1012.9 hPa 0 mm - 33 W/m² -
1788414225 9.44° C 99% 1012.9 hPa 0 mm - 32 W/m² -
1788413624 8.89° C 99% 1012.8 hPa 0 mm - 32 W/m² -
1788413023 8.89° C 99% 1012.8 hPa 0 mm - 28 W/m² -
1788412420 8.33° C 98% 1012.8 hPa 0 mm - 40 W/m² -
1788411819 8.33° C 99% 1012.8 hPa 0 mm - 32 W/m² -
1788411217 8.33° C 99% 1012.7 hPa 0 mm - 21 W/m² -
1788410617 8.33° C 98% 1012.6 hPa 0 mm - 14 W/m² -
1788410016 8.33° C 98% 1012.6 hPa 0 mm - 11 W/m² -
1788409417 8.33° C 98% 1012.7 hPa 0 mm - 9 W/m² -
1788408816 8.33° C 98% 1012.7 hPa 0 mm - 5 W/m² -
1788408211 8.33° C 98% 1012.7 hPa 0 mm - 0 W/m² -
1788407610 8.33° C 98% 1012.7 hPa 0 mm - 0 W/m² -
1788407010 8.33° C 98% 1012.7 hPa 0 mm - 0 W/m² -
1788406409 8.33° C 98% 1012.8 hPa 0 mm - 0 W/m² -
1788405809 8.33° C 98% 1012.9 hPa 0 mm - 0 W/m² -

* Rain latest hour (hover to see other rain measurements)
** Current wind speed in m/s (hover to see current wind gust speed)